www.pogodaiklimat.ru

Погода и климат >> Архив погоды >> Доминиканская Республика >> Бараона


ПОГОДА в Бараоне

  • Прогноз погоды в Бараоне
  • Монитор погоды в Бараоне

АРХИВ ПОГОДЫ в Бараоне

Время (UTC), дата Ветер
(напр.,м/с)
 
Видим.   Явления Облачность Т
(С)
Тd
(С)
f
(%)
Тe
(С)
Тes
(С)
Комфортность P
(гПа)
Po
(гПа)
Тmin
(С)
Tmax
(С)
R
(мм)
R24
(мм)
S
(см)
12 10.08 штиль 0 16 км 8/5 480 м
[Cb cap Ac As Cs]
+27.0 +24.8 88 +39 +40 очень
душно
1016.4 1016.1 +25.4 +33.0 0.3
15 10.08 ЮВ 9 16 км {дождь} 8/5 480 м
[Cb cap Ac As Cs]
+31.6 +27.8 80 +51 +52 опасность
перегрева
1017.0 1016.7 0.5
18 10.08 ЮВ 9 16 км {дождь} 5/4 630 м
[Cb cap Ac trans Ci fib]
+33.0 +27.2 72 +52 +53 опасность
перегрева
1015.6 1015.3 +25.4 +33.3
21 10.08 ЮВ 9 16 км 8/4 630 м
[Cb cap Ac trans Cs]
+32.5 +26.4 70 +49 +49 опасность
перегрева
1013.7 1013.4
00 11.08 ЮВ 6 16 км 8/5 600 м
[Cb cap Ac und Cs]
+29.8 +25.9 80 +45 +45 опасность
перегрева
1015.0 1014.7 +25.4 +33.8
12 11.08 ЮВ 3 8000 м пыль 8/5 420 м
[Cb cap Ac und Cs]
+28.8 +25.1 80 +42 +42 опасность
перегрева
1016.6 1016.3 +27.4 +33.8
15 11.08 ЮВ 8 14 км пыль 8/4 630 м
[Cb cap Ac und Cs]
+31.7 +25.0 68 +45 +47 опасность
перегрева
1017.8 1017.5
18 11.08 ЮВ 9 16 км 5/4 660 м
[Cb cap Ac trans Ci fib]
+33.0 +24.2 60 +45 +46 опасность
перегрева
1015.8 1015.5 +27.4 +33.2
21 11.08 ЮВ 9 16 км 5/3 630 м
[Cb cap Ci fib]
+31.6 +25.2 69 +46 +46 опасность
перегрева
1013.6 1013.3
00 12.08 ЮВ 6 16 км 6/5 540 м
[Cb cap Ac und Ci fib]
+29.2 +25.5 80 +43 +43 опасность
перегрева
1014.4 1014.1 +27.4 +34.2
12 12.08 СВ 4 16 км 8/3 600 м
[Cb cap Ac und Cs]
+28.5 +23.1 73 +38 +39 очень
душно
1014.4 1014.1 +25.8 +34.2
15 12.08 ЮВ 4 16 км 3/3 720 м
[Cu med, cong]
+31.4 +22.5 59 +41 +49 опасность
перегрева
1016.2 1015.9
18 12.08 ЮВ 8 16 км 3/3 800 м
[Cu med, cong]
+32.4 +23.2 58 +43 +45 опасность
перегрева
1014.4 1014.1 +25.8 +33.8
00 13.08 ЮВ 6 16 км 4/4 540 м
[Cb cap]
+28.2 +24.7 81 +40 +40 очень
душно
1013.2 1012.9 +25.8 +34.2
12 13.08 штиль 0 16 км 4/4 480 м
[Cb cap]
+26.4 +24.5 89 +37 +40 очень
душно
1015.2 1014.9 +23.8 +34.2 0.8
15 13.08 ЮВ 6 16 км 4/4 600 м
[Cb cap]
+31.6 +24.7 67 +45 +49 опасность
перегрева
1016.2 1015.9
18 13.08 Ю 8 16 км 9/4 600 м
[Cb cap Ac und]
+32.6 +25.8 67 +48 +48 опасность
перегрева
1014.3 1014.0 +23.8 +34.0
21 13.08 Ю 8 16 км 5/5 600 м
[Cb cap]
+30.8 +25.7 74 +45 +46 опасность
перегрева
1013.2 1012.9
00 14.08 ЮВ 3 16 км 5/5 480 м
[Cb cap]
+27.6 +25.5 88 +40 +40 очень
душно
1014.3 1014.0 +23.8 +34.0
12 14.08 ЮВ 3 14 км пыль 8/3 480 м
[Cb cap Ac As]
+27.2 +23.1 78 +36 +37 очень
душно
1016.8 1016.5 +24.6 +34.0 1
15 14.08 ЮВ 5 14 км пыль 3/3 600 м
[Cb cap Ac trans]
+31.6 +24.1 65 +44 +50 опасность
перегрева
1017.6 1017.3
18 14.08 В 7 16 км 3/1 720 м
[Cu med, cong Ac trans]
+33.2 +23.8 58 +45 +49 опасность
перегрева
1016.2 1015.9 +24.6 +33.5
21 14.08 В 8 16 км 4/3 720 м
[Cu med, cong Ac trans]
+33.0 +24.4 61 +46 +46 опасность
перегрева
1014.3 1014.0
00 15.08 С 4 16 км 5/3 540 м
[Cu med, cong Ac trans Ci fib]
+28.8 +24.0 75 +40 +40 очень
душно
1015.4 1015.1 +24.6 +33.8
12 15.08 ЮВ 6 16 км 5/5 600 м
[Cb cap Ac trans Ci fib]
+31.8 +24.7 66 +45 +45 опасность
перегрева
1017.9 1017.6
15 15.08 ЮВ 6 16 км 5/5 600 м
[Cb cap Ac trans Ci fib]
+31.8 +24.7 66 +45 +48 опасность
перегрева
1017.9 1017.6
18 15.08 Ю 7 16 км 5/4 700 м
[Sc Ac trans Ci fib]
+34.2 +25.0 59 +25.3 +34.6
21 15.08 ЮВ 6 12 км пыль 8/6 540 м
[Cb cap Ac trans Cs]
+31.5 +25.9 72 +47 +47 опасность
перегрева
1016.3 1016.0
00 16.08 В 7 12 км пыль 8/8 480 м
[Cb cap Ac trans Cs]
+28.6 +23.1 72 +38 +38 очень
душно
1016.8 1016.5 +25.3 +34.6
12 16.08 штиль 0 12 км пыль 8/4 600 м
[Sc Ci fib]
+28.5 +24.9 81 +41 +43 опасность
перегрева
1018.3 1018.0 +27.2 +34.6
15 16.08 ЮВ 4 12 км пыль 8/3 750 м
[Cu med, cong Ci fib]
+32.6 +23.8 60 +44 +51 опасность
перегрева
1018.1 1017.8
18 16.08 ЮВ 8 12 км пыль 6/3
[Cu med, cong Ci fib]
+33.8 +25.7 63 +49 +51 опасность
перегрева
1016.8 1016.5 +27.2 +34.6
21 16.08 ЮВ 6 12 км пыль 5/4 660 м
[Cb cap Ci fib]
+33.0 +25.5 65 +48 +49 опасность
перегрева
1016.0 1015.7
00 17.08 ЮВ 4 12 км пыль 8/4 540 м
[Cb cap Cs]
+29.8 +24.8 75 +43 +43 опасность
перегрева
1016.4 1016.1 +27.2 +34.8

 

Местоположение метеостанции Бараона (Доминиканская Республика): широта 18.20 долгота -71.10 высота над уровнем моря 3 м.

В архиве по умолчанию представлена погода в Бараоне за последнюю неделю. Архивные данные за месяц целиком и за предыдущие месяцы, начиная с января 2011 года, Вы можете получить, выбрав интересующий диапазон дат из раскрывающегося списка и нажав кнопку "Ввод!".


*Определитесь, кто Вы:
робот инопланетянин человек

Внимание! Время в таблицах - всемирное. Для получения местного времени необходимо прибавить поправку, которая равна -4 ч.

Смотрите также архив погоды в соседних городах и на ближайших метеорологических станциях:

Погода в Санто-Доминго (Доминиканская Республика) (131 км)
Погода в Сантьяго (Доминиканская Республика) (145 км)
Погода в Лас Америкас (Доминиканская Республика) (154 км)
Погода в Пуэрто-Плате (Доминиканская Республика) (182 км)
Погода в Сабана де ла Мар (Доминиканская Республика) (204 км)
Погода в Ла Романа аэропорту (Доминиканская Республика) (232 км)
Погода в Пунта-Кане (Доминиканская Республика) (292 км)
Погода в Пунта-де-Маиси (Куба) (393 км)
Погода в Сантьяго-де-Кубе (Куба) (537 км)
Погода в Пунта Лукреция (Куба) (570 км)

Пояснения к столбцам:

Ветер - указаны скорость ветра в м/с - средняя за 10 мин, порывы в срок и между сроками (в фигурных скобках) и направление, откуда дует ветер: С - северный, СВ - северо-восточный, В - восточный, ЮВ - юго-восточный, Ю - южный, ЮЗ - юго-западный, З - западный, СЗ - северо-западный.
Видимость - горизонтальная дальность видимости в метрах или километрах. При видимости от 1 до 10 км при отсутствии осадков обычно наблюдается дымка, при ухудшении видимости до 1 км и менее - туман. В сухую погоду видимость может ухудшаться дымом, пылью или мглою.
Явления - указаны атмосферные явления, наблюдавшиеся в срок или в последний час перед сроком; фигурными скобками обозначены явления, наблюдавшиеся между сроками (за 1-3 часа до срока); квадратными скобками обозначены град или гололедные отложения с указанием их диаметра в мм.
Облачность - указаны через наклонную черту общая и нижняя облачность в баллах и высота нижней границы облаков в метрах; квадратными скобками обозначены формы облаков: Ci - перистые, Cs - перисто-слоистые, Cc - перисто-кучевые, Ac - высококучевые, As - высокослоистые, Sc - слоисто-кучевые, Ns - слоисто-дождевые, Cu - кучевые, Cb - кучево-дождевые. Подробнее классификацию облаков см. в Атласе облаков (PDF).
T - Температура воздуха - температура, измеренная на высоте 2 м над землей.
Td - Температура точки росы - температура, при понижении до которой содержащийся в воздухе водяной пар достигнет насыщения.
f - Относительная влажность воздуха - влажноcть воздуха, измеренная на высоте 2 м над землей.
Te - Эффективная температура - температура, которую ощущает одетый по сезону человек в тени. Характеристика душности погоды. При расчете учитывается влияние влажности воздуха и скорости ветра на теплоощущения человека.
Tes - Эффективная температура на солнце - температура, которую ощущает человек, с поправкой на солнечный нагрев. Характеристика знойности погоды. Зависит от высоты солнца над горизонтом, облачности и скорости ветра. Ночью, в пасмурную погоду, а также при ветре 12 м/с и более поправка равна нулю.
P - Атмосферное давление - приведенное к уровню моря атмосферное давление.
Po - Атмосферное давление - измеренное на уровне метеостанции атмосферное давление.
Tmin - Минимальная температура - минимум температуры воздуха на высоте 2 м над землей.
Tmax - Максимальная температура - максимум температуры воздуха на высоте 2 м над землей.
R - Количество осадков - Количество выпавших осадков за период времени, мм. При наведении курсора мыши на число - период времени, за который выпало указанное количество осадков.
R24 - Количество осадков - Количество выпавших осадков за 24 часа, мм.
S - Снежный покров - Высота снежного покрова, см. При наведении курсора мыши на число - состояние снежного покрова и степень покрытия местности в баллах.